Lawrenceville, IL

3:06 PM CST on February 24, 2017 (GMT -0600)
Lawrenceville-Vincennes International

Weather History for KLWV - May, 2013

Change the Weather History Date:

Monday, May 27, 2013

  Actual Average Record
Temperature  
Mean Temperature 73 °F 69 °F  
Max Temperature 87 °F 80 °F 95 °F (2012)
Min Temperature 59 °F 59 °F 42 °F (1992)
Degree Days  
Heating Degree Days 0 1  
Month to date heating degree days 78 78  
Since 1 July heating degree days 4927 4669  
Cooling Degree Days 8 5  
Month to date cooling degree days 102 88  
Year to date cooling degree days 124 114  
Growing Degree Days 22 (Base 50)    
Moisture  
Dew Point 61 °F    
Average Humidity 65    
Maximum Humidity 87    
Minimum Humidity 42    
Precipitation  
Precipitation 0.45 in 0.12 in 2.43 in (2004)
Month to date precipitation 5.52 5.08  
Year to date precipitation 23.22 17.06  
Sea Level Pressure  
Sea Level Pressure 29.98 in    
Wind  
Wind Speed 12 mph (South)    
Max Wind Speed 30 mph    
Max Gust Speed 39 mph    
Visibility 7 miles    
Events Fog , Rain , Thunderstorm    
T = Trace of Precipitation, MM = Missing Value Source: NWS Daily Summary

Daily Weather History Graph

Daily Weather History Graph

Search for Another Location

Airport or City:

Trip Planner

Search our weather history database for the weather conditions in past years. The results will help you decide how hot, cold, wet, or windy it might be!

Date:

Astronomy

May. 27, 2013 Rise Set
Actual Time 5:29 AM CDT 8:06 PM CDT
Civil Twilight 4:58 AM CDT 8:37 PM CDT
Nautical Twilight 4:20 AM CDT 9:15 PM CDT
Astronomical Twilight 3:36 AM CDT 9:59 PM CDT
Moon 10:45 PM CDT (5/27) 8:06 AM CDT (5/27)
Length of Visible Light 15h 38m
Length of Day
14h 36m
Waning Gibbous, 91% of the Moon is Illuminated
May 27
Waning Gibbous
May 31
Last Quarter
Jun 8
New
Jun 16
First Quarter
Jun 23
Full

Hourly Weather History & Observations

Time (CDT) Temp. Heat Index Dew Point Humidity Pressure Visibility Wind Dir Wind Speed Gust Speed Precip Events Conditions
12:53 AM 64.0 °F - 55.9 °F 75% 30.09 in 8.0 mi SSE 6.9 mph - N/A   Partly Cloudy
1:53 AM 63.0 °F - 55.9 °F 78% 30.07 in 8.0 mi SSE 4.6 mph - N/A   Partly Cloudy
2:53 AM 61.0 °F - 55.0 °F 81% 30.06 in 8.0 mi ESE 4.6 mph - N/A   Clear
3:53 AM 62.1 °F - 55.9 °F 80% 30.06 in 8.0 mi East 6.9 mph - N/A   Scattered Clouds
4:53 AM 61.0 °F - 55.0 °F 81% 30.06 in 8.0 mi ESE 5.8 mph - N/A   Partly Cloudy
5:53 AM 59.0 °F - 54.0 °F 83% 30.06 in 7.0 mi ESE 4.6 mph - N/A   Partly Cloudy
6:53 AM 63.0 °F - 57.0 °F 81% 30.05 in 7.0 mi ESE 6.9 mph - N/A   Partly Cloudy
7:53 AM 69.1 °F - 57.9 °F 68% 30.02 in 8.0 mi South 12.7 mph - N/A   Clear
8:53 AM 73.0 °F - 59.0 °F 61% 30.02 in 7.0 mi South 15.0 mph - N/A   Clear
9:53 AM 79.0 °F - 61.0 °F 54% 30.02 in 7.0 mi SSW 16.1 mph - N/A   Clear
10:53 AM 81.0 °F 82.2 °F 63.0 °F 54% 30.01 in 7.0 mi SW 17.3 mph 23.0 mph N/A   Clear
11:53 AM 84.0 °F 84.9 °F 63.0 °F 49% 29.99 in 7.0 mi SSW 18.4 mph 31.1 mph N/A   Clear
12:53 PM 84.0 °F 85.4 °F 64.0 °F 51% 29.97 in 7.0 mi SSW 15.0 mph 28.8 mph N/A   Partly Cloudy
1:53 PM 84.9 °F 85.9 °F 63.0 °F 48% 29.98 in 7.0 mi SW 23.0 mph - N/A   Mostly Cloudy
2:53 PM 86.0 °F 86.1 °F 61.0 °F 43% 29.95 in 7.0 mi SSW 23.0 mph 31.1 mph N/A   Scattered Clouds
3:53 PM 84.0 °F 84.0 °F 60.1 °F 44% 29.93 in 8.0 mi SSW 18.4 mph - N/A   Mostly Cloudy
4:53 PM 84.0 °F 84.0 °F 60.1 °F 44% 29.92 in 7.0 mi SSW 21.9 mph 26.5 mph N/A   Overcast
5:53 PM 82.9 °F 83.3 °F 61.0 °F 47% 29.91 in 7.0 mi South 15.0 mph - N/A   Mostly Cloudy
6:53 PM 79.0 °F - 63.0 °F 58% 29.91 in 7.0 mi SSW 15.0 mph - 0.00 in Rain Light Rain
7:04 PM 80.6 °F 81.8 °F 62.6 °F 54% 29.96 in 7.0 mi WNW 21.9 mph 33.4 mph 0.00 in Thunderstorm Overcast
7:10 PM 71.6 °F - 62.6 °F 73% 29.96 in 1.5 mi WNW 27.6 mph 39.1 mph 0.11 in Rain , Thunderstorm Light Thunderstorms and Rain
7:15 PM 68.0 °F - 64.4 °F 88% 29.96 in 0.5 mi WNW 19.6 mph 33.4 mph 0.28 in Fog , Rain , Thunderstorm Heavy Thunderstorms and Rain
7:26 PM 68.0 °F - 64.4 °F 88% 29.95 in 2.0 mi NW 9.2 mph - 0.38 in Rain , Thunderstorm Light Thunderstorms and Rain
7:34 PM 68.0 °F - 64.4 °F 88% 29.96 in 8.0 mi WNW 4.6 mph - 0.39 in Rain , Thunderstorm Light Thunderstorms and Rain
7:53 PM 66.9 °F - 64.0 °F 90% 29.94 in 6.0 mi SSE 6.9 mph - 0.41 in Rain , Thunderstorm Light Rain
8:07 PM 66.2 °F - 64.4 °F 94% 29.94 in 6.0 mi SSE 10.4 mph - 0.02 in Rain Light Rain
8:53 PM 66.9 °F - 64.0 °F 90% 29.88 in 10.0 mi East 8.1 mph 18.4 mph 0.04 in   Mostly Cloudy
9:01 PM 66.2 °F - 64.4 °F 94% 29.90 in 10.0 mi Variable 5.8 mph - N/A   Mostly Cloudy
9:13 PM 68.0 °F - 62.6 °F 83% 29.91 in 10.0 mi Variable 4.6 mph - N/A   Scattered Clouds
9:53 PM 68.0 °F - 64.0 °F 87% 29.93 in 10.0 mi SW 5.8 mph - N/A   Clear
10:53 PM 66.0 °F - 63.0 °F 90% 29.94 in 10.0 mi South 5.8 mph - N/A   Clear
11:53 PM 66.0 °F - 63.0 °F 90% 29.94 in 10.0 mi South 5.8 mph - N/A   Clear